COSMOS 2547 (705K)

Last updated on Mon Sep 21 2026 00:03:22 GMT+0000 (Coordinated Universal Time)

1 46805U 20075A 26262.26670197 -.00000008 00000+0 00000+0 0 9990 2 46805 64.6006 189.3379 0008330 235.6169 124.3172 2.13099872 45913
UTC large
Height (km)
Speed (km/s)
/
Latitude / Longitude
Inclination (degrees)
Orbital Period (minutes)
Azimuth
Elevation
Range (km)
Doppler Factor

Next 0 passes for location: London (51.5072 / 0.1276)

No passes found over London.
COSMOS 2547 (705K)